| time (UTC) | temp F | wind direction | speed knots | gust knots | rain 1hr in | rain 24hr in | rain mn in | humidity % | barometer mb |
| 20260505011704 | 64 | 140 | 1.7 | 4.3 | 0.00 | 0.00 | 0.00 | 52 | 1008.4 |
| 20260505011203 | 64 | 182 | 0.9 | 4.3 | 0.00 | 0.00 | 0.00 | 51 | 1008.3 |
| 20260505010703 | 64 | 174 | 0.9 | 2.6 | 0.00 | 0.00 | 0.00 | 50 | 1008.2 |
| 20260505010204 | 64 | 171 | 0.9 | 2.6 | 0.00 | 0.00 | 0.00 | 49 | 1008.1 |
| 20260505005203 | 65 | 222 | 1.7 | 6.1 | 0.00 | 0.00 | 0.00 | 48 | 1007.8 |
| 20260505003706 | 65 | 178 | 1.7 | 7.8 | 0.00 | 0.00 | 0.00 | 48 | 1007.5 |
| 20260505003206 | 64 | 183 | 2.6 | 7.8 | 0.00 | 0.00 | 0.00 | 48 | 1007.4 |
| 20260505002205 | 65 | 194 | 0.0 | 1.7 | 0.00 | 0.00 | 0.00 | 48 | 1006.9 |
| 20260505001706 | 65 | 194 | 0.0 | 0.0 | 0.00 | 0.00 | 0.00 | 46 | 1006.7 |
| 20260505001206 | 65 | 194 | 0.0 | 0.0 | 0.00 | 0.00 | 0.00 | 46 | 1006.7 |
| 20260505000706 | 66 | 194 | 0.0 | 0.0 | 0.00 | 0.00 | 0.00 | 45 | 1006.6 |
| 20260504233206 | 68 | 169 | 0.0 | 1.7 | 0.00 | 0.00 | 0.00 | 42 | 1006.1 |
| 20260504232705 | 68 | 207 | 0.0 | 1.7 | 0.00 | 0.00 | 0.00 | 40 | 1006.1 |
| 20260504232205 | 69 | 207 | 0.0 | 0.9 | 0.00 | 0.00 | 0.00 | 40 | 1006.0 |
| 20260504230706 | 70 | 187 | 0.0 | 1.7 | 0.00 | 0.00 | 0.00 | 38 | 1005.8 |
| 20260504225705 | 70 | 228 | 0.0 | 1.7 | 0.00 | 0.00 | 0.00 | 37 | 1005.7 |
| 20260504225206 | 71 | 250 | 1.7 | 2.6 | 0.00 | 0.00 | 0.00 | 37 | 1005.7 |
| 20260504224205 | 71 | 185 | 0.0 | 2.6 | 0.00 | 0.00 | 0.00 | 37 | 1005.5 |
| 20260504223706 | 71 | 241 | 0.9 | 2.6 | 0.00 | 0.00 | 0.00 | 36 | 1005.5 |
| 20260504222205 | 72 | 239 | 1.7 | 2.6 | 0.00 | 0.00 | 0.00 | 36 | 1005.4 |
| 20260504221706 | 72 | 229 | 0.0 | 1.7 | 0.00 | 0.00 | 0.00 | 36 | 1005.4 |
| 20260504221205 | 72 | 229 | 0.0 | 2.6 | 0.00 | 0.00 | 0.00 | 35 | 1005.4 |
| 20260504215206 | 72 | 225 | 2.6 | 4.3 | 0.00 | 0.00 | 0.00 | 35 | 1005.5 |
| 20260504214206 | 73 | 187 | 1.7 | 6.1 | 0.00 | 0.00 | 0.00 | 35 | 1005.5 |
| 20260504213705 | 73 | 269 | 1.7 | 2.6 | 0.00 | 0.00 | 0.00 | 34 | 1005.5 |
| 20260504213205 | 73 | 281 | 1.7 | 5.2 | 0.00 | 0.00 | 0.00 | 35 | 1005.5 |
| 20260504212205 | 73 | 181 | 1.7 | 7.0 | 0.00 | 0.00 | 0.00 | 35 | 1005.5 |
| 20260504210707 | 73 | 232 | 2.6 | 6.1 | 0.00 | 0.00 | 0.00 | 32 | 1005.5 |
| 20260504205206 | 73 | 335 | 2.6 | 7.8 | 0.00 | 0.00 | 0.00 | 33 | 1005.5 |
| 20260504204205 | 73 | 211 | 4.3 | 7.8 | 0.00 | 0.00 | 0.00 | 33 | 1005.7 |
| 20260504203206 | 73 | 192 | 0.9 | 2.6 | 0.00 | 0.00 | 0.00 | 33 | 1005.5 |
| 20260504202706 | 74 | 226 | 2.6 | 6.1 | 0.00 | 0.00 | 0.00 | 31 | 1005.5 |
| 20260504202205 | 74 | 207 | 1.7 | 4.3 | 0.00 | 0.00 | 0.00 | 33 | 1005.6 |
| 20260504201706 | 74 | 210 | 0.9 | 2.6 | 0.00 | 0.00 | 0.00 | 32 | 1005.6 |
| 20260504201205 | 74 | 265 | 2.6 | 5.2 | 0.00 | 0.00 | 0.00 | 32 | 1005.6 |
| 20260504200706 | 74 | 198 | 1.7 | 2.6 | 0.00 | 0.00 | 0.00 | 33 | 1005.5 |
| 20260504200205 | 74 | 198 | 0.9 | 5.2 | 0.00 | 0.00 | 0.00 | 32 | 1005.7 |
| 20260504195206 | 73 | 219 | 2.6 | 5.2 | 0.00 | 0.00 | 0.00 | 32 | 1005.6 |
| 20260504194206 | 73 | 219 | 2.6 | 7.8 | 0.00 | 0.00 | 0.00 | 31 | 1005.7 |
| 20260504193705 | 73 | 284 | 2.6 | 7.0 | 0.00 | 0.00 | 0.00 | 31 | 1005.6 |
| 20260504192205 | 73 | 176 | 1.7 | 4.3 | 0.00 | 0.00 | 0.00 | 33 | 1005.7 |
| 20260504185205 | 73 | 194 | 3.5 | 10.4 | 0.00 | 0.00 | 0.00 | 31 | 1006.0 |
| 20260504184705 | 73 | 167 | 2.6 | 6.1 | 0.00 | 0.00 | 0.00 | 31 | 1006.0 |
| 20260504183706 | 73 | 181 | 2.6 | 8.7 | 0.00 | 0.00 | 0.00 | 31 | 1006.0 |
| 20260504183205 | 73 | 216 | 1.7 | 5.2 | 0.00 | 0.00 | 0.00 | 31 | 1006.1 |
| 20260504182205 | 72 | 243 | 3.5 | 6.1 | 0.00 | 0.00 | 0.00 | 33 | 1006.1 |
| 20260504180205 | 71 | 230 | 4.3 | 7.8 | 0.00 | 0.00 | 0.00 | 32 | 1006.3 |
| 20260504175706 | 71 | 242 | 4.3 | 7.8 | 0.00 | 0.00 | 0.00 | 32 | 1006.4 |
| 20260504175205 | 72 | 229 | 4.3 | 10.4 | 0.00 | 0.00 | 0.00 | 33 | 1006.4 |
| 20260504174707 | 71 | 182 | 3.5 | 6.1 | 0.00 | 0.00 | 0.00 | 33 | 1006.3 |
| 20260504173706 | 71 | 231 | 2.6 | 7.0 | 0.00 | 0.00 | 0.00 | 33 | 1006.4 |
| 20260504173205 | 71 | 248 | 2.6 | 6.1 | 0.00 | 0.00 | 0.00 | 34 | 1006.5 |
| 20260504172205 | 70 | 235 | 1.7 | 7.0 | 0.00 | 0.00 | 0.00 | 35 | 1006.8 |
| 20260504171706 | 70 | 245 | 5.2 | 10.4 | 0.00 | 0.00 | 0.00 | 35 | 1006.8 |
| 20260504171205 | 70 | 274 | 2.6 | 6.1 | 0.00 | 0.00 | 0.00 | 35 | 1006.6 |
| 20260504160206 | 67 | 254 | 4.3 | 14.8 | 0.00 | 0.00 | 0.00 | 37 | 1007.4 |
| 20260504141205 | 63 | 202 | 0.9 | 6.1 | 0.00 | 0.00 | 0.00 | 47 | 1008.4 |
| 20260504140205 | 62 | 253 | 2.6 | 6.1 | 0.00 | 0.00 | 0.00 | 48 | 1008.7 |
| 20260504130205 | 57 | 233 | 1.7 | 4.3 | 0.00 | 0.00 | 0.00 | 54 | 1009.3 |
| 20260504120205 | 50 | 258 | 1.7 | 5.2 | 0.00 | 0.01 | 0.00 | 66 | 1009.9 |
| 20260504110705 | 43 | 211 | 0.0 | 0.9 | 0.00 | 0.01 | 0.00 | 82 | 1009.9 |
| 20260504100205 | 43 | 257 | 0.0 | 0.0 | 0.00 | 0.01 | 0.00 | 81 | 1010.0 |
| 20260504081705 | 41 | 257 | 0.0 | 0.0 | 0.00 | 0.01 | 0.00 | 87 | 1009.9 |
| 20260504080205 | 41 | 257 | 0.0 | 0.0 | 0.00 | 0.01 | 0.00 | 88 | 1009.9 |
| 20260504070206 | 38 | 257 | 0.0 | 0.0 | 0.00 | 0.01 | 0.00 | 89 | 1009.8 |
| 20260504050205 | 34 | 257 | 0.0 | 0.0 | 0.00 | 0.01 | 0.00 | 88 | 1009.9 |
| 20260504043705 | 34 | 257 | 0.0 | 0.0 | 0.00 | 0.01 | 0.00 | 86 | 1009.9 |
| 20260504042704 | 34 | 257 | 0.0 | 0.0 | 0.00 | 0.01 | 0.00 | 86 | 1009.9 |
| 20260504042205 | 35 | 257 | 0.0 | 0.0 | 0.00 | 0.01 | 0.00 | 86 | 1009.9 |
| 20260504041704 | 35 | 257 | 0.0 | 0.0 | 0.00 | 0.01 | 0.00 | 85 | 1009.9 |
| 20260504040705 | 35 | 257 | 0.0 | 0.0 | 0.00 | 0.01 | 0.00 | 85 | 1009.8 |
| 20260504040206 | 35 | 257 | 0.0 | 0.0 | 0.00 | 0.01 | 0.00 | 85 | 1009.7 |
| 20260504035704 | 35 | 257 | 0.0 | 0.0 | 0.00 | 0.01 | 0.01 | 84 | 1009.7 |
| 20260504035205 | 35 | 257 | 0.0 | 0.0 | 0.00 | 0.01 | 0.01 | 84 | 1009.7 |
| 20260504034705 | 36 | 257 | 0.0 | 0.0 | 0.00 | 0.01 | 0.01 | 84 | 1009.6 |
| 20260504033204 | 36 | 257 | 0.0 | 0.0 | 0.00 | 0.01 | 0.01 | 82 | 1009.6 |
| 20260504031705 | 37 | 257 | 0.0 | 0.0 | 0.00 | 0.01 | 0.01 | 82 | 1009.5 |
| 20260504030704 | 37 | 257 | 0.0 | 0.0 | 0.00 | 0.01 | 0.01 | 81 | 1009.6 |
| 20260504030205 | 37 | 257 | 0.0 | 0.0 | 0.00 | 0.01 | 0.01 | 80 | 1009.6 |
| 20260504025205 | 38 | 257 | 0.0 | 0.0 | 0.00 | 0.01 | 0.01 | 79 | 1009.6 |
| 20260504024204 | 38 | 257 | 0.0 | 0.0 | 0.00 | 0.01 | 0.01 | 78 | 1009.5 |
| 20260504023705 | 38 | 257 | 0.0 | 0.0 | 0.00 | 0.01 | 0.01 | 78 | 1009.4 |
| 20260504022705 | 39 | 257 | 0.0 | 0.0 | 0.00 | 0.01 | 0.01 | 76 | 1009.5 |
| 20260504022206 | 39 | 257 | 0.0 | 0.0 | 0.00 | 0.01 | 0.01 | 76 | 1009.4 |
| 20260504014204 | 42 | 257 | 0.0 | 0.0 | 0.00 | 0.01 | 0.01 | 69 | 1009.1 |
| 20260504013705 | 42 | 257 | 0.0 | 0.0 | 0.00 | 0.01 | 0.01 | 68 | 1009.1 |
| 20260504012706 | 43 | 257 | 0.0 | 0.0 | 0.00 | 0.01 | 0.01 | 67 | 1009.0 |